SCP
0 -0 -0 -0 -0 0 0 0 0 0 0 0 0 0 0 0 0 -0 -0 0 0 0 0 0 0 0 0 0 0 0 -0 -0 0 0 0 0 0 0 0 0 0 0 0 0
-0 -0 0 -0 0 0 0 0 0 0 0 0 0 0 0 0 0 0 0 0 0 0 0 0 0 0 0 0 0 0 0 0 0 0 0 0 0 0 0 0 0 0 0 0
-0 -0 -0 -0 0 0 0 0 0 0 0 0 0 0 0 0 0 -0 -0 0 0 0 0 0 0 0 0 0 0 0 0 0 0 0 0 0 0 0 0 0 0 0 0 0
-0 0 0 -0 0 0 0 0 0 0 0 0 0 0 0 0 0 0 0 0 0 0 0 0 0 0 0 0 0 0 0 0 0 0 0 0 0 0 0 0 0 0 0 0
-0 -0 -0 -0 0 0 0 0 0 0 0 0 0 0 0 0 -0 -0 -0 0 0 0 0 0 0 0 0 0 0 0 0 0 0 0 0 0 0 0 0 0 0 0 0 0
-0 -0 -0 0 -0 0 0 0 0 0 0 0 0 0 0 0 0 -0 -0 0 0 0 0 0 0 0 0 0 0 0 0 0 0 0 0 0 0 0 0 0 0 0 0 0
0 0 0 -0 -0 -0 0 0 0 0 0 0 0 0 0 0 0 0 0 0 0 0 0 0 0 0 0 0 0 0 0 0 0 0 0 0 0 0 0 0 0 0 0 0
0 0 0 0 0 0 0 0 0 0 0 0 0 0 0 0 0 -0 0 0 0 0 0 0 0 0 0 0 0 0 0 0 0 0 0 0 0 0 0 0 0 0 0 0
0 0 0 0 0 0 0 0 0 0 0 0 0 0 0 0 0 0 0 0 0 0 0 0 0 0 0 0 0 0 0 0 0 0 0 0 0 0 0 0 0 0 0 0
0 0 0 0 0 0 0 0 0 0 0 0 0 0 0 0 0 0 0 0 0 0 0 0 0 0 0 0 0 0 0 0 0 0 0 0 0 0 0 0 0 0 0 0
0 0 0 0 0 0 0 0 0 0 0 0 0 0 0 0 0 0 0 0 0 0 0 0 0 0 0 0 0 0 0 0 0 0 0 0 0 0 0 0 0 0 0 0
0 0 0 0 0 0 0 0 0 0 0 0 0 0 0 0 0 0 0 0 0 0 0 0 0 0 0 0 0 0 0 0 0 0 0 0 0 0 0 0 0 0 0 0
0 0 0 0 0 0 0 0 0 0 0 0 0 0 0 0 0 0 0 0 0 0 0 0 0 0 0 0 0 0 0 0 0 0 0 0 0 0 0 0 0 0 0 0
0 0 0 0 0 0 0 0 0 0 0 0 0 0 0 0 0 0 0 0 0 0 0 0 0 0 0 0 0 0 0 0 0 0 0 0 0 0 0 0 0 0 0 0
0 0 0 0 0 0 0 0 0 0 0 0 0 0 0 0 0 0 0 0 0 0 0 0 0 0 0 0 0 0 0 0 0 0 0 0 0 0 0 0 0 0 0 0
0 0 0 0 0 0 0 0 0 0 0 0 0 0 0 0 0 0 0 0 0 0 0 0 0 0 0 0 0 0 0 0 0 0 0 0 0 0 0 0 0 0 0 0
0 0 0 0 0 0 0 0 0 0 0 0 0 0 0 0 0 0 0 0 0 0 0 0 0 0 0 0 0 0 0 0 0 0 0 0 0 0 0 0 0 0 0 0
0 0 0 0 0 0 0 0 0 0 0 0 0 0 0 0 0 0 0 0 0 0 0 0 0 0 0 0 0 0 0 0 0 0 0 0 0 0 0 0 0 0 0 0
0 0 0 0 0 0 0 0 0 0 0 0 0 0 0 0 0 0 0 0 0 0 0 0 0 0 0 0 0 0 0 0 0 0 0 0 0 0 0 0 0 0 0 0
0 0 0 0 0 0 0 0 0 0 0 0 0 0 0 0 0 0 0 0 0 0 0 0 0 0 0 0 0 0 0 0 0 0 0 0 0 0 0 0 0 0 0 0
0 0 0 0 0 0 0 0 0 0 0 0 0 0 0 0 0 0 0 0 0 0 0 0 0 0 0 0 0 0 0 0 0 0 0 0 0 0 0 0 0 0 0 0
0 0 0 0 0 0 0 0 0 0 0 -0 0 0 0 0 0 0 0 0 0 0 0 0 0 0 0 0 0 0 0 0 0 0 0 0 0 0 0 0 0 0 0 0
0 0 0 0 0 0 0 0 0 0 0 0 0 0 0 0 0 0 0 0 0 0 0 0 0 0 0 0 0 0 0 0 0 0 0 0 0 0 0 0 0 0 0 0
0 0 0 0 0 0 0 0 0 0 0 0 0 0 0 0 0 0 0 0 0 0 0 0 0 0 0 0 0 0 0 0 0 0 0 0 0 0 0 0 0 0 0 0
0 0 0 0 0 0 0 0 0 0 0 0 0 0 0 0 0 0 0 0 0 0 0 0 0 0 0 0 0 0 0 0 0 0 0 0 0 0 0 0 0 0 0 0
0 0 0 0 0 0 0 0 0 0 0 0 0 0 0 0 0 0 0 0 0 0 0 0 0 0 0 0 0 0 0 0 0 0 0 0 0 0 0 0 0 0 0 0
Wind_Speed_500mb
4 11 2 14 21 8 14 13 13 4 6 12 4 8 9 7 15 18 16 26 26 23 15 11 1 7 13 21 29 42 51 49 31 17 18 19 22 22 23 26 29 32 32 35
10 2 8 8 12 15 12 22 8 9 6 10 5 6 5 13 13 24 28 35 29 24 24 17 10 8 10 16 25 39 48 47 35 25 23 24 24 23 23 26 29 31 34 40
9 8 11 12 10 13 3 14 13 13 9 14 8 5 3 3 10 16 18 25 34 33 27 25 16 9 8 13 21 32 41 41 33 26 24 23 22 20 19 22 27 32 38 40
3 4 9 13 6 6 5 14 15 28 7 5 2 6 8 6 10 15 29 25 34 38 35 28 18 10 9 11 15 25 35 34 34 21 22 23 23 23 25 26 29 34 38 39
11 11 5 7 2 9 2 21 15 9 11 9 2 4 9 4 12 17 36 36 40 39 38 29 19 9 11 7 10 21 31 28 31 18 20 24 23 23 23 22 25 32 37 38
6 5 3 6 12 17 19 17 17 10 7 5 6 8 8 9 14 9 31 39 48 36 34 30 18 15 14 7 7 16 24 23 29 17 16 19 20 23 25 23 25 32 38 34
13 7 7 34 20 2 12 12 6 5 6 9 8 2 15 11 15 25 42 43 44 35 35 35 22 16 16 7 7 13 19 17 25 16 13 16 20 21 25 27 26 33 35 33
6 9 7 7 12 15 13 13 10 6 6 5 2 7 11 11 22 26 35 42 40 41 44 34 20 15 15 7 5 9 14 11 19 18 11 14 18 18 23 25 25 31 33 32
8 7 6 4 6 13 8 3 8 14 6 3 5 12 10 7 3 10 27 36 42 45 38 31 22 19 16 8 3 6 9 5 12 17 14 14 16 16 21 21 23 27 29 31
10 3 0 4 8 16 6 12 7 8 3 4 8 9 10 12 16 12 27 45 50 49 39 32 26 20 16 8 5 3 5 1 3 12 14 16 17 16 18 22 21 24 28 29
9 8 7 4 3 14 2 2 13 10 8 8 3 12 14 20 24 24 42 52 54 50 41 34 27 23 17 11 7 5 6 6 5 4 10 15 17 17 17 20 20 23 27 28
9 9 6 8 6 3 3 6 10 10 7 2 7 12 3 12 27 42 48 54 51 47 40 34 33 25 18 11 7 7 9 8 8 8 7 9 13 18 17 18 19 21 25 26
14 3 6 13 12 5 3 5 9 10 7 9 9 12 2 6 21 41 45 53 54 49 44 42 40 30 20 12 9 7 9 5 8 11 13 11 12 15 20 16 17 18 21 24
11 7 11 14 11 6 6 8 8 10 7 9 11 10 7 8 14 27 42 53 54 56 53 48 41 32 21 15 11 10 5 3 8 11 16 16 15 15 16 16 15 17 19 20
8 6 6 8 7 5 6 8 15 14 9 11 8 13 11 19 26 49 53 49 47 58 57 53 42 33 23 20 17 16 10 6 8 15 15 13 15 15 16 15 13 18 20 20
7 3 2 3 8 10 8 4 14 4 7 5 4 9 13 20 32 29 45 49 53 62 61 54 41 33 26 19 17 16 12 10 12 14 12 10 13 13 11 15 15 15 18 21
6 9 6 7 8 12 9 7 8 7 8 12 8 14 9 9 30 45 45 53 61 62 65 54 43 33 21 19 15 14 12 13 15 16 12 12 13 12 11 13 14 14 19 23
9 8 5 4 7 1 13 9 13 7 3 10 4 9 15 16 33 36 41 53 57 58 58 47 41 31 23 20 17 12 14 14 15 16 14 13 13 11 13 19 14 13 18 25
5 9 7 6 5 9 12 4 4 7 11 6 7 4 7 1 4 23 29 47 53 54 44 39 32 26 22 19 16 13 13 11 15 15 16 13 11 11 16 15 16 13 21 25
11 13 9 4 3 7 9 13 4 6 8 4 4 10 9 7 3 13 17 27 31 29 30 29 28 29 23 15 17 15 12 12 16 14 13 14 12 4 6 11 6 14 22 26
7 7 8 4 4 11 12 10 12 7 13 13 21 18 17 8 14 19 14 5 11 19 19 24 29 21 11 10 13 14 14 13 11 15 13 13 15 13 11 15 21 28 33 34
9 11 6 4 3 12 1 5 6 11 9 22 24 21 25 19 11 2 8 17 22 20 18 19 19 19 16 14 10 8 11 7 11 14 16 16 17 19 21 27 28 33 37 39
1 11 8 15 11 11 4 11 14 17 19 30 24 19 24 23 13 17 24 24 20 18 12 11 12 17 21 21 19 12 6 7 10 16 17 18 20 24 28 34 35 38 37 37
6 9 5 4 4 9 11 17 18 17 21 18 24 23 26 24 18 20 25 27 26 26 20 18 19 24 27 25 23 15 10 16 21 23 24 25 29 28 30 35 36 37 36 37
7 14 8 8 14 8 4 6 6 8 13 19 25 27 26 30 28 25 29 33 32 29 24 21 17 19 17 25 27 17 15 22 28 30 33 35 35 38 40 41 41 41 40 39
15 11 9 11 13 6 3 11 6 12 14 16 24 35 38 40 25 24 29 21 35 36 25 23 25 24 17 29 32 26 27 30 36 40 43 44 44 47 50 53 54 48 46 44
Wind_Direction_500mb
29 78 150 236 222 194 122 109 115 72 105 83 20 99 119 212 250 266 238 226 202 170 180 200 63 333 348 21 25 23 21 22 26 29 23 20 16 9 1 360 3 3 1 356
25 40 196 107 94 115 105 117 93 70 57 91 156 96 159 182 220 241 246 227 210 189 200 212 223 280 340 15 20 24 22 20 24 30 25 20 15 11 10 11 9 4 356 352
115 259 316 131 122 115 104 134 169 139 122 52 108 355 290 178 240 262 226 227 226 210 213 215 220 267 318 8 17 23 21 21 28 35 32 22 11 14 11 14 9 2 356 355
222 293 38 98 155 84 120 140 122 126 109 153 23 264 284 256 276 225 213 209 206 216 221 220 219 264 316 355 11 21 20 20 24 34 29 26 28 29 21 11 6 2 0 1
263 340 42 95 50 95 64 102 99 95 93 108 251 68 261 119 267 249 236 224 210 213 223 218 219 270 291 309 6 16 12 15 19 20 26 27 25 22 14 5 3 1 1 2
245 309 167 99 39 95 153 81 47 49 75 45 243 160 265 194 208 236 224 218 210 206 212 209 209 249 261 267 357 7 9 14 11 14 23 15 15 17 12 8 6 3 0 4
347 351 64 105 83 6 94 78 35 336 7 215 200 110 246 235 212 209 202 206 208 208 202 203 215 243 246 248 339 357 6 17 14 16 7 5 2 2 4 3 6 4 3 6
107 352 164 173 162 176 179 151 151 237 213 249 231 224 253 264 270 221 211 202 208 206 199 207 223 238 236 246 305 346 6 22 18 16 21 7 359 359 359 0 7 6 10 14
140 275 304 25 120 126 208 155 158 104 29 32 260 286 298 38 67 204 186 194 196 194 198 211 222 225 223 245 288 347 10 26 26 32 31 8 1 358 4 8 6 6 12 13
206 81 209 187 99 51 134 144 76 40 126 298 287 282 242 198 214 209 191 192 191 195 196 213 219 216 213 232 253 317 339 310 10 27 31 20 5 1 5 7 5 7 9 12
138 113 278 47 180 176 108 40 49 106 123 159 284 267 221 208 191 196 203 197 194 198 199 213 215 209 213 222 240 285 314 251 253 350 17 19 16 6 2 1 4 8 11 14
184 136 162 201 306 346 110 162 134 117 209 145 153 275 96 264 211 198 204 199 203 206 207 216 215 211 225 224 243 289 310 248 253 266 313 351 9 16 3 357 0 6 11 14
186 65 62 356 352 358 211 135 101 102 82 187 141 264 357 287 223 204 207 204 209 207 209 216 211 216 230 236 249 284 309 274 254 270 279 305 328 352 355 350 358 3 8 12
114 114 151 188 205 173 185 166 149 123 124 176 228 280 280 233 217 204 209 207 211 208 212 216 212 218 229 240 248 256 280 326 274 276 275 282 304 328 352 357 359 2 3 6
101 134 156 211 247 228 235 203 173 194 169 167 254 213 260 214 211 213 212 209 212 207 213 214 211 220 227 237 247 243 254 276 302 296 270 282 312 315 339 352 355 0 3 3
11 145 123 324 11 10 268 307 180 151 151 270 129 257 228 238 227 222 212 210 215 213 216 212 214 221 227 245 249 242 252 282 307 312 285 292 324 323 351 5 359 2 8 8
79 120 81 261 3 359 347 286 199 192 178 148 170 234 178 198 217 230 219 217 220 221 221 211 220 223 228 248 243 251 260 275 302 303 293 295 326 335 318 336 344 356 358 356
122 97 91 198 24 322 247 310 236 179 205 193 251 256 222 244 236 243 232 225 226 231 229 217 222 222 229 241 236 244 258 274 295 300 296 288 314 323 321 312 317 350 352 335
71 119 80 120 180 280 308 273 126 178 255 203 232 279 175 161 251 261 254 236 246 245 237 224 223 227 234 244 236 239 249 278 298 306 292 283 297 314 324 313 294 312 319 337
56 71 109 117 139 214 246 318 285 111 302 286 220 212 176 151 13 272 282 257 235 238 222 215 219 224 236 239 238 238 252 277 304 308 294 278 272 273 326 343 315 300 308 322
29 18 110 134 180 277 236 155 334 81 238 197 219 228 201 192 235 310 307 209 170 175 188 218 223 233 228 235 244 253 260 275 299 296 299 287 273 269 279 291 293 296 300 306
156 131 177 102 104 280 333 66 128 212 268 220 209 212 226 224 288 312 162 152 158 183 192 217 226 230 215 229 246 258 276 260 280 294 298 294 288 286 290 294 297 295 299 303
230 177 185 175 214 220 179 314 286 259 206 224 222 214 222 221 213 182 175 175 192 208 205 207 216 218 224 237 247 265 271 294 296 295 304 310 304 299 296 294 296 294 291 295
243 190 185 56 265 243 272 302 264 239 208 232 226 215 206 205 187 180 198 197 204 216 220 215 220 233 241 248 257 274 255 273 285 294 299 303 307 311 301 293 293 293 293 293
195 155 176 260 274 267 350 318 311 196 212 239 225 224 210 204 204 206 204 214 224 222 230 231 238 252 267 261 264 272 266 270 280 287 289 291 296 302 305 303 298 292 293 291
193 187 162 219 198 157 57 46 97 180 232 250 249 238 233 224 233 221 215 247 243 230 233 250 256 263 305 289 272 273 271 272 280 285 290 293 297 299 298 298 299 300 294 290
Wind_Speed_850mb
4 11 2 14 21 8 14 13 13 4 6 12 4 8 9 7 15 18 16 26 26 23 15 11 1 7 13 21 29 42 51 49 31 17 18 19 22 22 23 26 29 32 32 35
10 2 8 8 12 15 12 22 8 9 6 10 5 6 5 13 13 24 28 35 29 24 24 17 10 8 10 16 25 39 48 47 35 25 23 24 24 23 23 26 29 31 34 40
9 8 11 12 10 13 3 14 13 13 9 14 8 5 3 3 10 16 18 25 34 33 27 25 16 9 8 13 21 32 41 41 33 26 24 23 22 20 19 22 27 32 38 40
3 4 9 13 6 6 5 14 15 28 7 5 2 6 8 6 10 15 29 25 34 38 35 28 18 10 9 11 15 25 35 34 34 21 22 23 23 23 25 26 29 34 38 39
11 11 5 7 2 9 2 21 15 9 11 9 2 4 9 4 12 17 36 36 40 39 38 29 19 9 11 7 10 21 31 28 31 18 20 24 23 23 23 22 25 32 37 38
6 5 3 6 12 17 19 17 17 10 7 5 6 8 8 9 14 9 31 39 48 36 34 30 18 15 14 7 7 16 24 23 29 17 16 19 20 23 25 23 25 32 38 34
13 7 7 34 20 2 12 12 6 5 6 9 8 2 15 11 15 25 42 43 44 35 35 35 22 16 16 7 7 13 19 17 25 16 13 16 20 21 25 27 26 33 35 33
6 9 7 7 12 15 13 13 10 6 6 5 2 7 11 11 22 26 35 42 40 41 44 34 20 15 15 7 5 9 14 11 19 18 11 14 18 18 23 25 25 31 33 32
8 7 6 4 6 13 8 3 8 14 6 3 5 12 10 7 3 10 27 36 42 45 38 31 22 19 16 8 3 6 9 5 12 17 14 14 16 16 21 21 23 27 29 31
10 3 0 4 8 16 6 12 7 8 3 4 8 9 10 12 16 12 27 45 50 49 39 32 26 20 16 8 5 3 5 1 3 12 14 16 17 16 18 22 21 24 28 29
9 8 7 4 3 14 2 2 13 10 8 8 3 12 14 20 24 24 42 52 54 50 41 34 27 23 17 11 7 5 6 6 5 4 10 15 17 17 17 20 20 23 27 28
9 9 6 8 6 3 3 6 10 10 7 2 7 12 3 12 27 42 48 54 51 47 40 34 33 25 18 11 7 7 9 8 8 8 7 9 13 18 17 18 19 21 25 26
14 3 6 13 12 5 3 5 9 10 7 9 9 12 2 6 21 41 45 53 54 49 44 42 40 30 20 12 9 7 9 5 8 11 13 11 12 15 20 16 17 18 21 24
11 7 11 14 11 6 6 8 8 10 7 9 11 10 7 8 14 27 42 53 54 56 53 48 41 32 21 15 11 10 5 3 8 11 16 16 15 15 16 16 15 17 19 20
8 6 6 8 7 5 6 8 15 14 9 11 8 13 11 19 26 49 53 49 47 58 57 53 42 33 23 20 17 16 10 6 8 15 15 13 15 15 16 15 13 18 20 20
7 3 2 3 8 10 8 4 14 4 7 5 4 9 13 20 32 29 45 49 53 62 61 54 41 33 26 19 17 16 12 10 12 14 12 10 13 13 11 15 15 15 18 21
6 9 6 7 8 12 9 7 8 7 8 12 8 14 9 9 30 45 45 53 61 62 65 54 43 33 21 19 15 14 12 13 15 16 12 12 13 12 11 13 14 14 19 23
9 8 5 4 7 1 13 9 13 7 3 10 4 9 15 16 33 36 41 53 57 58 58 47 41 31 23 20 17 12 14 14 15 16 14 13 13 11 13 19 14 13 18 25
5 9 7 6 5 9 12 4 4 7 11 6 7 4 7 1 4 23 29 47 53 54 44 39 32 26 22 19 16 13 13 11 15 15 16 13 11 11 16 15 16 13 21 25
11 13 9 4 3 7 9 13 4 6 8 4 4 10 9 7 3 13 17 27 31 29 30 29 28 29 23 15 17 15 12 12 16 14 13 14 12 4 6 11 6 14 22 26
7 7 8 4 4 11 12 10 12 7 13 13 21 18 17 8 14 19 14 5 11 19 19 24 29 21 11 10 13 14 14 13 11 15 13 13 15 13 11 15 21 28 33 34
9 11 6 4 3 12 1 5 6 11 9 22 24 21 25 19 11 2 8 17 22 20 18 19 19 19 16 14 10 8 11 7 11 14 16 16 17 19 21 27 28 33 37 39
1 11 8 15 11 11 4 11 14 17 19 30 24 19 24 23 13 17 24 24 20 18 12 11 12 17 21 21 19 12 6 7 10 16 17 18 20 24 28 34 35 38 37 37
6 9 5 4 4 9 11 17 18 17 21 18 24 23 26 24 18 20 25 27 26 26 20 18 19 24 27 25 23 15 10 16 21 23 24 25 29 28 30 35 36 37 36 37
7 14 8 8 14 8 4 6 6 8 13 19 25 27 26 30 28 25 29 33 32 29 24 21 17 19 17 25 27 17 15 22 28 30 33 35 35 38 40 41 41 41 40 39
15 11 9 11 13 6 3 11 6 12 14 16 24 35 38 40 25 24 29 21 35 36 25 23 25 24 17 29 32 26 27 30 36 40 43 44 44 47 50 53 54 48 46 44
Wind_Direction_850mb
29 78 150 236 222 194 122 109 115 72 105 83 20 99 119 212 250 266 238 226 202 170 180 200 63 333 348 21 25 23 21 22 26 29 23 20 16 9 1 360 3 3 1 356
25 40 196 107 94 115 105 117 93 70 57 91 156 96 159 182 220 241 246 227 210 189 200 212 223 280 340 15 20 24 22 20 24 30 25 20 15 11 10 11 9 4 356 352
115 259 316 131 122 115 104 134 169 139 122 52 108 355 290 178 240 262 226 227 226 210 213 215 220 267 318 8 17 23 21 21 28 35 32 22 11 14 11 14 9 2 356 355
222 293 38 98 155 84 120 140 122 126 109 153 23 264 284 256 276 225 213 209 206 216 221 220 219 264 316 355 11 21 20 20 24 34 29 26 28 29 21 11 6 2 0 1
263 340 42 95 50 95 64 102 99 95 93 108 251 68 261 119 267 249 236 224 210 213 223 218 219 270 291 309 6 16 12 15 19 20 26 27 25 22 14 5 3 1 1 2
245 309 167 99 39 95 153 81 47 49 75 45 243 160 265 194 208 236 224 218 210 206 212 209 209 249 261 267 357 7 9 14 11 14 23 15 15 17 12 8 6 3 0 4
347 351 64 105 83 6 94 78 35 336 7 215 200 110 246 235 212 209 202 206 208 208 202 203 215 243 246 248 339 357 6 17 14 16 7 5 2 2 4 3 6 4 3 6
107 352 164 173 162 176 179 151 151 237 213 249 231 224 253 264 270 221 211 202 208 206 199 207 223 238 236 246 305 346 6 22 18 16 21 7 359 359 359 0 7 6 10 14
140 275 304 25 120 126 208 155 158 104 29 32 260 286 298 38 67 204 186 194 196 194 198 211 222 225 223 245 288 347 10 26 26 32 31 8 1 358 4 8 6 6 12 13
206 81 209 187 99 51 134 144 76 40 126 298 287 282 242 198 214 209 191 192 191 195 196 213 219 216 213 232 253 317 339 310 10 27 31 20 5 1 5 7 5 7 9 12
138 113 278 47 180 176 108 40 49 106 123 159 284 267 221 208 191 196 203 197 194 198 199 213 215 209 213 222 240 285 314 251 253 350 17 19 16 6 2 1 4 8 11 14
184 136 162 201 306 346 110 162 134 117 209 145 153 275 96 264 211 198 204 199 203 206 207 216 215 211 225 224 243 289 310 248 253 266 313 351 9 16 3 357 0 6 11 14
186 65 62 356 352 358 211 135 101 102 82 187 141 264 357 287 223 204 207 204 209 207 209 216 211 216 230 236 249 284 309 274 254 270 279 305 328 352 355 350 358 3 8 12
114 114 151 188 205 173 185 166 149 123 124 176 228 280 280 233 217 204 209 207 211 208 212 216 212 218 229 240 248 256 280 326 274 276 275 282 304 328 352 357 359 2 3 6
101 134 156 211 247 228 235 203 173 194 169 167 254 213 260 214 211 213 212 209 212 207 213 214 211 220 227 237 247 243 254 276 302 296 270 282 312 315 339 352 355 0 3 3
11 145 123 324 11 10 268 307 180 151 151 270 129 257 228 238 227 222 212 210 215 213 216 212 214 221 227 245 249 242 252 282 307 312 285 292 324 323 351 5 359 2 8 8
79 120 81 261 3 359 347 286 199 192 178 148 170 234 178 198 217 230 219 217 220 221 221 211 220 223 228 248 243 251 260 275 302 303 293 295 326 335 318 336 344 356 358 356
122 97 91 198 24 322 247 310 236 179 205 193 251 256 222 244 236 243 232 225 226 231 229 217 222 222 229 241 236 244 258 274 295 300 296 288 314 323 321 312 317 350 352 335
71 119 80 120 180 280 308 273 126 178 255 203 232 279 175 161 251 261 254 236 246 245 237 224 223 227 234 244 236 239 249 278 298 306 292 283 297 314 324 313 294 312 319 337
56 71 109 117 139 214 246 318 285 111 302 286 220 212 176 151 13 272 282 257 235 238 222 215 219 224 236 239 238 238 252 277 304 308 294 278 272 273 326 343 315 300 308 322
29 18 110 134 180 277 236 155 334 81 238 197 219 228 201 192 235 310 307 209 170 175 188 218 223 233 228 235 244 253 260 275 299 296 299 287 273 269 279 291 293 296 300 306
156 131 177 102 104 280 333 66 128 212 268 220 209 212 226 224 288 312 162 152 158 183 192 217 226 230 215 229 246 258 276 260 280 294 298 294 288 286 290 294 297 295 299 303
230 177 185 175 214 220 179 314 286 259 206 224 222 214 222 221 213 182 175 175 192 208 205 207 216 218 224 237 247 265 271 294 296 295 304 310 304 299 296 294 296 294 291 295
243 190 185 56 265 243 272 302 264 239 208 232 226 215 206 205 187 180 198 197 204 216 220 215 220 233 241 248 257 274 255 273 285 294 299 303 307 311 301 293 293 293 293 293
195 155 176 260 274 267 350 318 311 196 212 239 225 224 210 204 204 206 204 214 224 222 230 231 238 252 267 261 264 272 266 270 280 287 289 291 296 302 305 303 298 292 293 291
193 187 162 219 198 157 57 46 97 180 232 250 249 238 233 224 233 221 215 247 243 230 233 250 256 263 305 289 272 273 271 272 280 285 290 293 297 299 298 298 299 300 294 290